Weather in Mytilene

Greece     39°06′19″N   26°33′20″E
temp.,
°C
wind,
m/s
gust,
m/s
humid.,
%
clouds,
%
prec.,
mm/h
press.,
hPa
HPBL,
m
2 august, mon
mon200:00+28n45470 0.0 101069
03:00+27nnw55470 0.0 100956
06:00+27nnw44460 0.0 100946
09:00+29nne35420 0.0 1010208
12:00+32ne14340 0.0 1010598
15:00+34w26370 0.0 10081167
18:00+35nw37320 0.0 1007423
21:00+30nne12430 0.0 100815
3 august, tue
tue300:00+29nw22470 0.0 100915
03:00+29n23430 0.0 100917
06:00+28nnw22440 0.0 100912
09:00+31nne12410 0.0 1010139
12:00+33n14350 0.0 1010935
15:00+36nw46270 0.0 10081108
18:00+37nw711200 0.0 1008519
21:00+31nnw46300 0.0 100876
4 august, wed
wed400:00+29n44410 0.0 101023
03:00+28nw33480 0.0 101019
06:00+28nnw33470 0.0 101021
09:00+31n23400 0.0 1011163
12:00+33wsw24380 0.0 10111063
15:00+36wnw36280 0.0 1009837
18:00+34nw36310 0.0 1009488
21:00+30n48440 0.0 1009146
5 august, thu
thu500:00+28nnw44520 0.0 101032
03:00+28nnw45530 0.0 101054
06:00+27nnw45540 0.0 100963
09:00+30n58440 0.0 1009236
12:00+35nne79300 0.0 1008796
15:00+37n68220 0.0 10071149
18:00+36n68240 0.0 1005843
21:00+30nnw45390 0.0 100649
6 august, fri
fri600:00+28n33450 0.0 100731
03:00+27nnw23470 0.0 100614
06:00+26nne22510 0.0 100616
09:00+29e22430 0.0 1005114
12:00+31sse23333 0.0 1004488
15:00+34sw453073 0.0 1003735
18:00+33wsw3430100 0.0 1001324
21:00+29nw1239100 0.0 100111